TimeAKDT,TemperatureF,Dew PointF,Humidity,Sea Level PressureIn,VisibilityMPH,Wind Direction,Wind SpeedMPH,Gust SpeedMPH,PrecipitationIn,Events,Conditions,WindDirDegrees,DateUTC
12:53 AM,28.9,28.0,96,30.34,10.0,NE,4.6,-,N/A,,Overcast,40,2012-10-27 08:53:00
1:53 AM,28.9,28.0,96,30.34,10.0,NE,3.5,-,N/A,,Overcast,40,2012-10-27 09:53:00
2:53 AM,28.9,28.0,96,30.35,10.0,NE,3.5,-,N/A,,Overcast,40,2012-10-27 10:53:00
3:35 AM,28.4,28.4,100,30.34,10.0,NNE,5.8,-,N/A,,Overcast,20,2012-10-27 11:35:00
3:53 AM,28.9,28.0,96,30.34,9.0,NE,5.8,-,N/A,,Overcast,40,2012-10-27 11:53:00
4:53 AM,28.0,28.0,100,30.33,5.0,NE,3.5,-,N/A,,Overcast,40,2012-10-27 12:53:00
5:53 AM,28.0,28.0,100,30.33,5.0,NE,3.5,-,N/A,,Overcast,40,2012-10-27 13:53:00
6:53 AM,28.0,28.0,100,30.32,6.0,NE,4.6,-,N/A,,Overcast,40,2012-10-27 14:53:00
7:53 AM,28.0,28.0,100,30.32,6.0,NE,3.5,-,N/A,,Overcast,50,2012-10-27 15:53:00
8:53 AM,28.0,28.0,100,30.32,7.0,East,4.6,-,N/A,,Overcast,80,2012-10-27 16:53:00
9:53 AM,26.1,25.0,96,30.31,10.0,West,3.5,-,N/A,,Overcast,270,2012-10-27 17:53:00
10:27 AM,26.6,26.6,100,30.31,1.0,Variable,3.5,-,N/A,,Overcast,0,2012-10-27 18:27:00
10:30 AM,26.6,26.6,100,30.31,1.0,Calm,Calm,-,N/A,,Mist,0,2012-10-27 18:30:00
10:39 AM,26.6,26.6,100,30.30,0.5,Calm,Calm,-,N/A,Fog,Light Freezing Fog,0,2012-10-27 18:39:00
10:53 AM,27.0,27.0,100,30.32,0.5,Calm,Calm,-,N/A,Fog,Light Freezing Fog,0,2012-10-27 18:53:00
11:53 AM,24.1,24.1,100,30.32,2.0,NNW,5.8,-,N/A,,Overcast,330,2012-10-27 19:53:00
12:32 PM,24.8,24.8,100,30.30,4.0,NNW,5.8,-,N/A,,Overcast,330,2012-10-27 20:32:00
12:53 PM,23.0,23.0,100,30.30,2.0,NNW,5.8,-,N/A,,Overcast,330,2012-10-27 20:53:00
1:21 PM,23.0,23.0,100,30.29,0.5,North,4.6,-,N/A,Fog,Light Freezing Fog,350,2012-10-27 21:21:00
1:53 PM,23.0,23.0,100,30.32,0.5,NNW,3.5,-,N/A,Fog,Light Freezing Fog,340,2012-10-27 21:53:00
2:53 PM,24.1,23.0,96,30.30,10.0,West,3.5,-,N/A,,Partly Cloudy,280,2012-10-27 22:53:00
3:25 PM,24.8,24.8,100,30.28,0.2,West,4.6,-,N/A,Fog,Light Freezing Fog,280,2012-10-27 23:25:00
3:39 PM,24.8,24.8,100,30.29,0.2,WNW,4.6,-,N/A,Fog,Light Freezing Fog,290,2012-10-27 23:39:00
3:46 PM,24.8,24.8,100,30.29,0.2,WNW,4.6,-,N/A,Fog,Light Freezing Fog,300,2012-10-27 23:46:00
3:53 PM,24.1,24.1,100,30.29,0.2,WNW,3.5,-,N/A,Fog,Light Freezing Fog,290,2012-10-27 23:53:00
4:34 PM,24.8,24.8,100,30.27,0.2,West,5.8,-,N/A,Fog,Light Freezing Fog,280,2012-10-28 00:34:00
4:48 PM,24.8,24.8,100,30.27,0.8,Calm,Calm,-,N/A,,Mostly Cloudy,0,2012-10-28 00:48:00
4:49 PM,24.8,24.8,100,30.28,1.0,Calm,Calm,-,N/A,,Mostly Cloudy,0,2012-10-28 00:49:00
4:57 PM,24.8,24.8,100,30.26,4.0,West,5.8,-,N/A,,Scattered Clouds,260,2012-10-28 00:57:00
5:53 PM,25.0,24.1,96,30.26,10.0,West,3.5,-,N/A,,Scattered Clouds,280,2012-10-28 01:53:00
6:53 PM,23.0,21.9,96,30.27,10.0,NW,3.5,-,N/A,,Partly Cloudy,320,2012-10-28 02:53:00
7:53 PM,21.9,21.0,96,30.27,10.0,West,4.6,-,N/A,,Clear,270,2012-10-28 03:53:00
8:53 PM,18.0,17.1,96,30.25,10.0,Calm,Calm,-,N/A,,Clear,0,2012-10-28 04:53:00
9:53 PM,18.0,17.1,96,30.25,10.0,Calm,Calm,-,N/A,,Clear,0,2012-10-28 05:53:00
10:53 PM,18.0,15.1,88,30.25,10.0,NNW,3.5,-,N/A,,Clear,330,2012-10-28 06:53:00
11:53 PM,18.0,16.0,92,30.25,10.0,NNW,6.9,-,N/A,,Clear,330,2012-10-28 07:53:00